Location: Newark
(39.0622°N, 106.5590°E)
Time: 15:27:50
(UTC+00:00)

Vanguard 2 Rocket - Pass Details

Date: 30 January 2020
Orbit: 554 x 3326 km, 32.9° (Epoch: 16 February)

Event Time Altitude Azimuth Distance (km) Brightness Sun altitude
Rises 21:36:21 0° 253° (WSW) 2,720 - -28.4°
Reaches altitude 10° 21:38:33 10° 244° (WSW) 1,829 - -28.0°
Maximum altitude 21:42:14 38° 175° (S) 935 - -27.3°
Exits shadow 21:42:46 36° 156° (SSE) 983 7.2 -27.2°
Drops below altitude 10° 21:46:50 10° 107° (ESE) 2,294 9.9 -26.4°
Sets 21:49:56 0° 100° (E) 3,540 11.3 -25.8°
